Regional Weather Roundup
Issued by NWS Northern Indiana

Home | Current Version | Previous Version | Graphics & Text | Print | Product List | Glossary On
Versions: 1 2 3 4 5 6 7 8 9 10 11 12 13 14 15 16 17 18 19 20 21 22 23 24 25 26 27 28 29 30 31 32 33 34 35 36 37 38 39 40 41 42 43 44 45 46 47 48 49 50
000
ASUS43 KIWX 280910
RWRIWX

KIWX WEATHER ROUNDUP
NATIONAL WEATHER SERVICE NORTHERN INDIANA
500 AM EDT THU JUL 28 2016

NOTE: "FAIR" INDICATES FEW OR NO CLOUDS BELOW 12,000 FEET WITH NO
SIGNIFICANT WEATHER AND/OR OBSTRUCTIONS TO VISIBILITY.

* THESE STATIONS ARE NOT UNDER NWS QUALITY CONTROL. THEY ALSO MAY NOT
  REPORT WEATHER SUCH AS PRECIPITATION OR FOG.

INZ001>027-281000-
NORTHERN INDIANA

CITY           SKY/WX    TMP DP  RH WIND       PRES   REMARKS
GARY*          CLEAR     68  68 100 CALM      29.91S FOG
VALPARAISO     CLOUDY    67  65  93 CALM      29.91F
MICHIGAN CITY* CLEAR     64  64 100 CALM      29.92S FOG
LAPORTE*       CLEAR    N/A N/A N/A CALM      29.92F
KNOX*            N/A     64  63  94 CALM      29.91S
SOUTH BEND     CLEAR     68  65  90 CALM      29.92S
GOSHEN         MOCLDY    65  62  90 CALM      29.91F
MONTICELLO*    CLOUDY    67  64  87 CALM      29.90S
LOGANSPORT*    CLOUDY    64  64 100 CALM      29.91S
ROCHESTER*     MOCLDY    70  70 100 CALM      29.91S
WARSAW*        CLOUDY    64  64 100 CALM      29.91F
ANGOLA*          N/A     64  64 100 CALM      29.92S
FORT WAYNE     CLOUDY    69  64  84 N5        29.90F
HUNTINGTON*    CLOUDY    67  65  96 CALM      29.90F
PERU/GRISSOM   CLOUDY    69  67  92 CALM      29.89F
MARION*        CLOUDY    66  65  97 CALM      29.91S FOG

$$
INZ028>050-281000-
CENTRAL INDIANA

CITY           SKY/WX    TMP DP  RH WIND       PRES   REMARKS
LAFAYETTE      CLOUDY    67  67 100 CALM      29.89S
KOKOMO*        CLOUDY    68  63  83 CALM      29.91S
MUNCIE*        PTCLDY    72  67  84 CALM      29.90F
INDIANAPOLIS   CLOUDY    77  65  66 VRB5      29.90F

$$
MIZ043>046-050>051-056>058-064>065-071>073-077>080-281000-
SOUTHWEST LOWER MICHIGAN

CITY           SKY/WX    TMP DP  RH WIND       PRES   REMARKS
BATTLE CREEK   MOCLDY    65  64  97 CALM      29.93S
BENTON HARBOR  CLEAR     67  64  90 CALM      29.91S
COLDWATER*     CLEAR     64  64  99 CALM      29.92F
HILLSDALE*     PTCLDY    63  61  93 CALM      29.93S
HOLLAND        PTCLDY    66  64  93 CALM      29.93R
GRAND RAPIDS   CLEAR     67  64  90 NE3       29.93S
KALAMAZOO      MOCLDY    67  62  84 CALM      29.92S
STURGIS*       PTCLDY    64  63  96 CALM      29.92S
THREE RIVERS*  FAIR      67  64  89 CALM      29.92F

$$
OHZ001>008-015>018-024>025-281000-
NORTHWEST OHIO

CITY           SKY/WX    TMP DP  RH WIND       PRES   REMARKS
DEFIANCE       CLOUDY    71  65  81 CALM      29.90F
FINDLAY        CLOUDY    74  62  66 NE3       29.89F
TOLEDO EXPRESS CLOUDY    67  66  97 CALM      29.90F
TOLEDO METCALF CLOUDY    70  65  84 CALM      29.91S
LIMA           CLOUDY    69  67  93 CALM      29.90F

$$
AND FOR LAKE MICHIGAN COASTAL AND OPEN LAKE BUOY OBSERVATIONS

STATION/POSITION TEMP    WIND        PRES    VSBY  WAVE
                 AIR SEA DIR/SP/G                  HT/PER
                 (F)     (DEG/KT/KT) (MB)    (MI)  (FT/S)
CALUMET HARBOR    75     220/  1/  2 1012.1F
MICHIGAN CITY     74     140/  5/  6   N/A
BURNS HARBOR      72     180/  1/  4 1013.2F
SAINT JOSEPH      70     130/  1/  2 1013.2F
SOUTH LAKE BUOY   74 75  320/  8/ 10 1012.4R         0
4 MI NW BRIDGMAN  76 78  160/  6/  8 1012.1F         1
MICHIGAN CITY     76 77  180/  2/  4   N/A           0

$$
&&




USA.gov is the U.S. government's official web portal to all federal, state and local government web resources and services.